Location: Unspecified
(48.2082°N, 0.0000°E)
Time: 16:51:15
(UTC+00:00)

A-11 Canister half - Pass Details

Date: 24 June 2019
Orbit: 1514 x 1686 km, 47.2° (Epoch: 18 October)

Event Time Altitude Azimuth Distance (km) Brightness Sun altitude
Rises 14:52:17 0° 285° (WNW) 4,841 12.1 48.4°
Reaches altitude 10° 14:55:28 10° 283° (WNW) 3,830 11.8 47.9°
Maximum altitude 15:05:02 66° 204° (SSW) 1,684 10.5 46.4°
Drops below altitude 10° 15:14:14 10° 125° (SE) 3,698 10.8 44.9°
Sets 15:17:15 0° 122° (ESE) 4,666 11.2 44.4°
